Tracking 29933 objects as of 2-Dec-2024
HD Live streaming from Space Station
objects crossing your sky now

STARLINK-6117

Track STARLINK-6117 now!
10-day predictions
STARLINK-6117 is classified as:


NORAD ID: 56130
Int'l Code: 2023-046AQ
Perigee: 565.3 km
Apogee: 567.1 km
Inclination: 43.0 °
Period: 95.8 minutes
Semi major axis: 6937 km
RCS: Unknown
Launch date: March 29, 2023
Source: United States (US)
Launch site: AIR FORCE EASTERN TEST RANGE (AFETR)
Your satellite tracking list
Your tracking list is empty




NASA's NSSDC Master Catalog

Two Line Element Set (TLE):
1 56130U 23046AQ  24337.16080217  .00000574  00000-0  57530-4 0  9994
2 56130  43.0032 139.3951 0001257 270.4727  89.5971 15.02535007 92631
Source of the keplerian elements: AFSPC